• In Schweiz
  • Länderverzeichnis
  • Für 7 Tage
  • Wassertemperatur
  • Satellitenkarten
  • Wetterkarte
  • Widgets
  • user-avatar
    Anmelden

    Stündliche Wetter Polinovo

    Heute, 14 November, Mittwoch

    Zeit Temperatur Niederschläge Wind Luftdruck Luftfeuchtigkeit
    00:00 +6°C° 1.2 mm 5 m/S 751 mmHg 81%
    01:00 +6°C° 1.2 mm 5 m/S 751 mmHg 86%
    02:00 +6°C° 0 mm 4 m/S 750 mmHg 91%
    03:00 +6°C° 0.4 mm 4 m/S 750 mmHg 90%
    04:00 +7°C° 0.4 mm 5 m/S 750 mmHg 89%
    05:00 +7°C° 0.4 mm 5 m/S 750 mmHg 88%
    06:00 +7°C° 0.3 mm 5 m/S 750 mmHg 88%
    07:00 +7°C° 0.3 mm 5 m/S 750 mmHg 87%
    08:00 +7°C° 0 mm 5 m/S 751 mmHg 87%
    09:00 +7°C° 0.7 mm 5 m/S 751 mmHg 86%
    10:00 +7°C° 0.7 mm 6 m/S 751 mmHg 85%
    11:00 +7°C° 0.7 mm 6 m/S 751 mmHg 84%
    12:00 +7°C° 0.6 mm 6 m/S 751 mmHg 84%
    13:00 +7°C° 0.6 mm 6 m/S 752 mmHg 84%
    14:00 +7°C° 0 mm 5 m/S 752 mmHg 85%
    15:00 +7°C° 0.3 mm 5 m/S 752 mmHg 85%
    16:00 +7°C° 0.3 mm 4 m/S 752 mmHg 84%
    17:00 +7°C° 0.3 mm 4 m/S 753 mmHg 84%
    18:00 +7°C° 0 mm 4 m/S 753 mmHg 85%
    19:00 +7°C° 0 mm 3 m/S 753 mmHg 87%
    20:00 +7°C° 0 mm 3 m/S 754 mmHg 88%
    21:00 +7°C° 0 mm 3 m/S 754 mmHg 90%
    22:00 +5°C° 0 mm 3 m/S 754 mmHg 91%
    23:00 +5°C° 0 mm 3 m/S 755 mmHg 93%

    Morgen, 15 November, Donnerstag

    Zeit Temperatur Niederschläge Wind Luftdruck Luftfeuchtigkeit
    00:00 +5°C° 0 mm 3 m/S 755 mmHg 93%
    01:00 +5°C° 0 mm 3 m/S 755 mmHg 93%
    02:00 +6°C° 0 mm 2 m/S 755 mmHg 93%
    03:00 +5°C° 0 mm 3 m/S 756 mmHg 93%
    04:00 +5°C° 0 mm 3 m/S 756 mmHg 93%
    05:00 +5°C° 0 mm 3 m/S 756 mmHg 92%
    06:00 +5°C° 0.1 mm 3 m/S 756 mmHg 92%
    07:00 +5°C° 0.1 mm 3 m/S 756 mmHg 92%
    08:00 +5°C° 0.1 mm 3 m/S 757 mmHg 92%
    09:00 +5°C° 0.1 mm 3 m/S 757 mmHg 90%
    10:00 +5°C° 0.1 mm 4 m/S 757 mmHg 88%
    11:00 +6°C° 0.1 mm 4 m/S 757 mmHg 86%
    12:00 +6°C° 0 mm 4 m/S 758 mmHg 84%
    13:00 +6°C° 0 mm 4 m/S 758 mmHg 82%
    14:00 +6°C° 0 mm 4 m/S 758 mmHg 80%
    15:00 +5°C° 0 mm 4 m/S 759 mmHg 80%
    16:00 +5°C° 0 mm 4 m/S 759 mmHg 80%
    17:00 +5°C° 0 mm 3 m/S 759 mmHg 79%
    18:00 +4°C° 0 mm 3 m/S 760 mmHg 79%
    19:00 +4°C° 0 mm 4 m/S 760 mmHg 79%
    20:00 +3°C° 0 mm 4 m/S 760 mmHg 79%
    21:00 +3°C° 0 mm 3 m/S 761 mmHg 80%
    22:00 +3°C° 0 mm 3 m/S 761 mmHg 80%
    23:00 +2°C° 0 mm 3 m/S 761 mmHg 81%

    übermorgen, 16 November, Freitag

    Zeit Temperatur Niederschläge Wind Luftdruck Luftfeuchtigkeit
    00:00 +2°C° 0 mm 3 m/S 762 mmHg 82%
    01:00 +2°C° 0 mm 3 m/S 762 mmHg 83%
    02:00 +3°C° 0 mm 2 m/S 762 mmHg 84%
    03:00 +3°C° 0 mm 2 m/S 763 mmHg 85%
    04:00 +3°C° 0 mm 2 m/S 763 mmHg 86%
    05:00 +3°C° 0 mm 2 m/S 763 mmHg 87%
    06:00 +3°C° 0 mm 2 m/S 763 mmHg 88%
    07:00 +2°C° 0 mm 3 m/S 764 mmHg 88%
    08:00 +1°C° 0 mm 3 m/S 764 mmHg 89%
    09:00 +2°C° 0 mm 3 m/S 764 mmHg 87%
    10:00 +2°C° 0 mm 3 m/S 765 mmHg 85%
    11:00 +2°C° 0 mm 3 m/S 765 mmHg 83%
    12:00 +2°C° 0 mm 3 m/S 765 mmHg 81%
    13:00 +2°C° 0 mm 3 m/S 765 mmHg 80%
    14:00 +4°C° 0 mm 2 m/S 765 mmHg 78%
    15:00 +3°C° 0 mm 2 m/S 765 mmHg 81%
    16:00 +3°C° 0 mm 2 m/S 765 mmHg 83%
    17:00 +2°C° 0 mm 2 m/S 765 mmHg 86%
    18:00 +2°C° 0 mm 2 m/S 765 mmHg 86%
    19:00 +2°C° 0 mm 2 m/S 765 mmHg 87%
    20:00 +1°C° 0 mm 2 m/S 766 mmHg 87%
    21:00 +1°C° 0 mm 2 m/S 766 mmHg 86%
    22:00 -1°C° 0 mm 2 m/S 766 mmHg 85%
    23:00 -1°C° 0 mm 2 m/S 766 mmHg 83%

    17 November, Samstag

    Zeit Temperatur Niederschläge Wind Luftdruck Luftfeuchtigkeit
    00:00 -1°C° 0 mm 2 m/S 766 mmHg 82%
    01:00 -2°C° 0 mm 2 m/S 766 mmHg 81%
    02:00 -2°C° 0 mm 2 m/S 766 mmHg 79%
    03:00 -2°C° 0 mm 2 m/S 766 mmHg 78%
    04:00 -2°C° 0 mm 2 m/S 766 mmHg 76%
    05:00 -2°C° 0 mm 2 m/S 766 mmHg 75%
    06:00 -2°C° 0 mm 2 m/S 766 mmHg 73%
    07:00 -2°C° 0 mm 2 m/S 766 mmHg 71%
    08:00 -2°C° 0 mm 2 m/S 766 mmHg 69%
    09:00 -1°C° 0 mm 2 m/S 766 mmHg 61%
    10:00 +1°C° 0 mm 2 m/S 766 mmHg 54%
    11:00 +2°C° 0 mm 2 m/S 766 mmHg 47%
    12:00 +3°C° 0 mm 1 m/S 766 mmHg 44%
    13:00 +4°C° 0 mm 1 m/S 765 mmHg 40%
    14:00 +4°C° 0 mm 1 m/S 765 mmHg 37%
    15:00 +3°C° 0 mm 1 m/S 765 mmHg 41%
    16:00 +2°C° 0 mm 1 m/S 764 mmHg 46%
    17:00 +1°C° 0 mm 1 m/S 764 mmHg 50%
    18:00 +1°C° 0 mm 1 m/S 764 mmHg 51%
    19:00 +1°C° 0 mm 1 m/S 764 mmHg 51%
    20:00 +1°C° 0 mm 1 m/S 764 mmHg 52%
    21:00 +1°C° 0 mm 1 m/S 763 mmHg 53%
    22:00 +1°C° 0 mm 1 m/S 763 mmHg 53%
    23:00 +1°C° 0 mm 1 m/S 763 mmHg 54%

    18 November, Sonntag

    Zeit Temperatur Niederschläge Wind Luftdruck Luftfeuchtigkeit
    00:00 -1°C° 0 mm 2 m/S 762 mmHg 56%
    01:00 -1°C° 0 mm 2 m/S 762 mmHg 58%
    02:00 -1°C° 0 mm 2 m/S 762 mmHg 61%
    03:00 -1°C° 0 mm 2 m/S 761 mmHg 65%
    04:00 -1°C° 0 mm 3 m/S 760 mmHg 70%
    05:00 -1°C° 0 mm 3 m/S 760 mmHg 74%
    06:00 -1°C° 0 mm 3 m/S 759 mmHg 78%
    07:00 -1°C° 0 mm 3 m/S 759 mmHg 82%
    08:00 0°C° 0 mm 3 m/S 758 mmHg 86%
    09:00 -1°C° 0 mm 4 m/S 758 mmHg 86%
    10:00 0°C° 0 mm 4 m/S 757 mmHg 86%
    11:00 +1°C° 0 mm 4 m/S 757 mmHg 86%
    12:00 +1°C° 0.1 mm 4 m/S 756 mmHg 87%
    13:00 +1°C° 0.1 mm 4 m/S 756 mmHg 88%
    14:00 +1°C° 0.1 mm 4 m/S 755 mmHg 89%
    15:00 +1°C° 0.1 mm 4 m/S 755 mmHg 89%
    16:00 +1°C° 0.1 mm 4 m/S 755 mmHg 89%
    17:00 0°C° 0.1 mm 4 m/S 754 mmHg 89%
    18:00 0°C° 0.1 mm 4 m/S 754 mmHg 88%
    19:00 0°C° 0.1 mm 4 m/S 754 mmHg 88%
    20:00 0°C° 0.1 mm 4 m/S 754 mmHg 88%
    21:00 0°C° 0 mm 4 m/S 754 mmHg 88%
    22:00 -1°C° 0 mm 4 m/S 754 mmHg 88%
    23:00 -1°C° 0 mm 4 m/S 753 mmHg 88%

    19 November, Montag

    Zeit Temperatur Niederschläge Wind Luftdruck Luftfeuchtigkeit
    00:00 -1°C° 0.1 mm 4 m/S 753 mmHg 87%
    01:00 -1°C° 0.1 mm 5 m/S 753 mmHg 86%
    02:00 0°C° 0.1 mm 5 m/S 752 mmHg 85%
    03:00 0°C° 0.3 mm 5 m/S 752 mmHg 86%
    04:00 0°C° 0.3 mm 5 m/S 752 mmHg 86%
    05:00 -1°C° 0.3 mm 6 m/S 751 mmHg 86%
    06:00 -1°C° 0.1 mm 6 m/S 751 mmHg 86%
    07:00 0°C° 0.1 mm 5 m/S 751 mmHg 86%
    08:00 0°C° 0.1 mm 5 m/S 751 mmHg 86%
    09:00 0°C° 0.1 mm 5 m/S 751 mmHg 85%
    10:00 +1°C° 0.1 mm 5 m/S 751 mmHg 84%
    11:00 +1°C° 0.1 mm 6 m/S 751 mmHg 82%
    12:00 +1°C° 0.2 mm 6 m/S 751 mmHg 82%
    13:00 +1°C° 0.2 mm 5 m/S 751 mmHg 82%
    14:00 +1°C° 0.2 mm 5 m/S 751 mmHg 81%
    15:00 +1°C° 0.1 mm 5 m/S 751 mmHg 82%
    16:00 0°C° 0.1 mm 5 m/S 751 mmHg 83%
    17:00 0°C° 0.1 mm 5 m/S 751 mmHg 83%
    18:00 0°C° 0.1 mm 5 m/S 751 mmHg 84%
    19:00 0°C° 0.1 mm 5 m/S 751 mmHg 84%
    20:00 -1°C° 0.1 mm 5 m/S 752 mmHg 85%
    21:00 -1°C° 0 mm 4 m/S 752 mmHg 85%
    22:00 -1°C° 0 mm 4 m/S 752 mmHg 86%
    23:00 -1°C° 0 mm 4 m/S 752 mmHg 87%
    Mehr zeigen